TITAN 3C TRANSTAGE DEB, 43447

Orbit data source: Space-Track

TITAN 3C TRANSTAGE DEB, 43447 is space debris in GEO originally from a launch on Sun, 09 Feb 1969 UTC launched from the Air Force Eastern Test Range (AFETR). Debris objects in space refer to the collection of defunct objects orbiting the Earth. Examples of debris include non-operational satellites, rocket bodies, and fragments generated from explosions, collisions, or faulty payload assembly.

Not visible in the next 10 days
Identifier
43447, 1969-013G
Orbit
GEO
Country
Flag of USUS
Related business
Manufacturer
Martin Marietta
Mission
Spacecraft
Bus & Motor
Unknown
Mass
Unknown
Launch date (UTC)
1969-02-09 (57 years ago)
Launch vehicle
Unknown
Launch site
Air Force Eastern Test Range (AFETR)
Object type
Payload
Rocket body
Debris
Shape & HBR
Unknown shape, 1.1 m
Radar Cross Section
RCS unknown

Expand to show TLE details & history
Last TLE update: 21 hours ago

TLE from 21 hours ago
0 TITAN 3C TRANSTAGE DEB
1 43447U 69013G   26071.30249049 -.00000244  00000-0  00000+0 0  9998
2 43447   1.0256  83.3663 0131936  20.3998 341.1348  0.97141589 28324
Epoch: 2026-03-12T07:15Z
TLE epoch observation values (Epoch: 2026-03-12T07:15:35.178Z)
Latitude
Longitude
165.56844°
Altitude
36,152.112 km
Speed
3.08 km/s
True Right ascension
05h 37m 40s
True Declination
0° 00' 00"
Sunlit
Object was in daylight at epoch
Visualization orbit readout
Latitude
Unknown
Longitude
Unknown
Altitude
Unknown
Speed
Unknown
Apparent Right ascension
Unknown
Apparent Declination
Unknown
Sunlit
N/A
Visualization observer readout
Local Sidereal Time
08:46:06
Azimuth
Unknown
Elevation
Unknown
Doppler factor
Unknown
Orbital elements
Apogee altitude
37,256.837 km
Perigee altitude
36,120.425 km
Semi-major axis
43,066.768 km
Eccentricity
0.01319
Inclination
1.0256°
RAAN
83.3663°
Arg. of periapsis
20.3998°
True anomaly
340.63821°
Mean anomaly
341.1348°
Eccentric anomaly
340.88729°
Mean motion
0.24285 °/min
Orbital period
1,482.43 mins
BSTAR
0
Loading maneuver chart data...
Computing Atmospheric mass density...

Documentation

Showing up to 5 results
|